Weather History for KEBG - March, 2013

Change the Weather History Date:

Tuesday, March 5, 2013

  Actual Average (KMFE) Record (KMFE)
Temperature  
Mean Temperature 64 °F 68 °F  
Max Temperature 76 °F 79 °F 99 °F (1989)
Min Temperature 53 °F 58 °F 35 °F (1965)
Degree Days  
Heating Degree Days 0 2  
Month to date heating degree days 10  
Since 1 July heating degree days 543  
Cooling Degree Days 0 5  
Month to date cooling degree days 25  
Year to date cooling degree days 184  
Growing Degree Days 14 (Base 50)    
Moisture  
Dew Point 43 °F    
Average Humidity 49    
Maximum Humidity 85    
Minimum Humidity 15    
Precipitation  
Precipitation 0.00 in 0.04 in 0.36 in (1968)
Month to date precipitation 0.20  
Year to date precipitation 2.36  
Sea Level Pressure  
Sea Level Pressure 30.10 in    
Wind  
Wind Speed 13 mph (North)    
Max Wind Speed 31 mph    
Max Gust Speed 39 mph    
Visibility 6 miles    
Events      
T = Trace of Precipitation, MM = Missing Value Source: NWS Daily Summary

Daily Weather History Graph

Daily Weather History Graph

Search for Another Location

Airport or City:

Trip Planner

Search our weather history database for the weather conditions in past years. The results will help you decide how hot, cold, wet, or windy it might be!

Date:

Astronomy

Mar. 05, 2013 Rise Set
Actual Time 6:51 AM CST 6:36 PM CST
Civil Twilight 6:28 AM CST 6:59 PM CST
Nautical Twilight 6:01 AM CST 7:26 PM CST
Astronomical Twilight 5:35 AM CST 7:53 PM CST
Moon 1:41 AM CST (3/5) 12:40 PM CST (3/5)
Length of Visible Light 12h 30m
Length of Day
11h 44m
Last Quarter, 40% of the Moon is Illuminated
Mar 5
Last Quarter
Mar 11
New
Mar 19
First Quarter
Mar 27
Full
Apr 2
Last Quarter

Hourly Weather History & Observations

Time (CST) Temp. Dew Point Humidity Pressure Visibility Wind Dir Wind Speed Gust Speed Precip Events Conditions
12:15 AM 68.4 °F 59.9 °F 74% 29.84 in 7.0 mi South 12.7 mph 20.7 mph N/A   Clear
12:35 AM 68.0 °F 59.9 °F 75% 29.84 in 7.0 mi South 15.0 mph 19.6 mph N/A   Clear
12:55 AM 67.6 °F 60.1 °F 77% 29.83 in 7.0 mi South 15.0 mph - N/A   Clear
1:15 AM 68.0 °F 60.3 °F 76% 29.83 in 7.0 mi South 12.7 mph - N/A   Clear
1:55 AM 67.5 °F 60.3 °F 78% 29.83 in 7.0 mi South 10.4 mph - N/A   Clear
2:15 AM 67.5 °F 60.1 °F 77% 29.83 in 7.0 mi South 13.8 mph 19.6 mph N/A   Clear
2:35 AM 67.1 °F 59.9 °F 78% 29.83 in 7.0 mi South 11.5 mph - N/A   Clear
2:55 AM 67.1 °F 59.9 °F 78% 29.82 in 7.0 mi South 13.8 mph - N/A   Clear
3:15 AM 67.1 °F 59.5 °F 77% 29.82 in 7.0 mi South 12.7 mph - N/A   Clear
3:35 AM 67.1 °F 59.4 °F 76% 29.82 in 7.0 mi South 13.8 mph 18.4 mph N/A   Clear
3:55 AM 66.7 °F 59.4 °F 77% 29.83 in 7.0 mi South 15.0 mph 18.4 mph N/A   Clear
4:15 AM 66.7 °F 59.5 °F 78% 29.83 in 7.0 mi South 11.5 mph - N/A   Clear
4:55 AM 66.4 °F 59.9 °F 80% 29.83 in 7.0 mi South 13.8 mph - N/A   Clear
5:15 AM 66.2 °F 60.3 °F 81% 29.83 in 7.0 mi South 11.5 mph - N/A   Scattered Clouds
5:35 AM 66.2 °F 60.4 °F 82% 29.84 in 7.0 mi South 10.4 mph - N/A   Clear
5:55 AM 65.8 °F 60.6 °F 83% 29.85 in 7.0 mi South 11.5 mph - N/A   Clear
6:15 AM 65.7 °F 60.8 °F 84% 29.86 in 7.0 mi South 11.5 mph - N/A   Clear
6:55 AM 65.3 °F 60.8 °F 85% 29.88 in 5.0 mi South 9.2 mph - N/A   Clear
7:15 AM 64.9 °F 60.4 °F 85% 29.89 in 5.0 mi South 6.9 mph - N/A   Clear
7:35 AM 65.3 °F 60.8 °F 85% 29.90 in 5.0 mi South 5.8 mph - N/A   Clear
7:55 AM 66.6 °F 61.2 °F 83% 29.93 in 5.0 mi SSW 8.1 mph - N/A   Haze
8:15 AM 67.5 °F 61.0 °F 80% 29.97 in 5.0 mi Calm Calm - N/A   Haze
8:35 AM 68.5 °F 61.0 °F 77% 30.01 in 5.0 mi North 10.4 mph - N/A   Haze
8:55 AM 67.5 °F 59.7 °F 76% 30.03 in 5.0 mi North 13.8 mph - N/A   Haze
9:15 AM 69.8 °F 59.2 °F 69% 30.03 in 5.0 mi North 9.2 mph 16.1 mph N/A   Haze
9:35 AM 70.5 °F 59.0 °F 67% 30.04 in 5.0 mi North 9.2 mph - N/A   Haze
9:55 AM 70.9 °F 58.5 °F 65% 30.06 in 5.0 mi NNE 15.0 mph - N/A   Haze
10:15 AM 71.1 °F 58.5 °F 64% 30.09 in 5.0 mi North 15.0 mph - N/A   Haze
10:35 AM 72.0 °F 58.3 °F 62% 30.10 in 7.0 mi North 17.3 mph 26.5 mph N/A   Overcast
10:55 AM 66.4 °F 47.7 °F 51% 30.14 in 2.5 mi North 31.1 mph 36.8 mph N/A   Haze
11:15 AM 63.9 °F 44.1 °F 49% 30.17 in 3.0 mi North 24.2 mph 39.1 mph N/A   Haze
11:35 AM 64.8 °F 44.1 °F 47% 30.19 in 4.0 mi North 21.9 mph 29.9 mph N/A   Haze
11:55 AM 64.2 °F 42.3 °F 45% 30.21 in 4.0 mi North 25.3 mph 32.2 mph N/A   Haze
12:15 PM 63.9 °F 40.6 °F 43% 30.21 in 5.0 mi North 21.9 mph 31.1 mph N/A   Haze
12:35 PM 64.8 °F 40.3 °F 41% 30.21 in 5.0 mi North 23.0 mph 29.9 mph N/A   Haze
12:55 PM 64.8 °F 38.8 °F 38% 30.22 in 5.0 mi North 23.0 mph 27.6 mph N/A   Haze
1:15 PM 65.7 °F 37.6 °F 36% 30.21 in 4.0 mi North 21.9 mph 26.5 mph N/A   Haze
1:35 PM 67.3 °F 36.7 °F 32% 30.21 in 5.0 mi North 21.9 mph 26.5 mph N/A   Haze
1:55 PM 68.4 °F 36.5 °F 31% 30.21 in 5.0 mi North 21.9 mph 31.1 mph N/A   Haze
2:15 PM 70.9 °F 36.0 °F 28% 30.20 in 5.0 mi North 23.0 mph 28.8 mph N/A   Haze
2:35 PM 72.1 °F 35.8 °F 26% 30.20 in 5.0 mi North 21.9 mph 27.6 mph N/A   Haze
2:55 PM 70.9 °F 35.1 °F 27% 30.20 in 5.0 mi North 15.0 mph 28.8 mph N/A   Haze
3:15 PM 72.9 °F 34.7 °F 25% 30.20 in 7.0 mi North 19.6 mph 27.6 mph N/A   Overcast
3:35 PM 74.3 °F 34.0 °F 23% 30.20 in 5.0 mi North 20.7 mph 24.2 mph N/A   Haze
3:55 PM 75.4 °F 33.6 °F 22% 30.19 in 7.0 mi North 18.4 mph - N/A   Scattered Clouds
4:15 PM 76.6 °F 31.8 °F 19% 30.19 in 7.0 mi North 18.4 mph 26.5 mph N/A   Clear
4:35 PM 76.8 °F 31.1 °F 19% 30.19 in 7.0 mi North 20.7 mph 26.5 mph N/A   Clear
4:55 PM 76.1 °F 29.7 °F 18% 30.20 in 7.0 mi North 17.3 mph 25.3 mph N/A   Clear
5:15 PM 74.7 °F 28.6 °F 18% 30.20 in 5.0 mi NNE 20.7 mph 25.3 mph N/A   Haze
5:35 PM 74.1 °F 27.1 °F 18% 30.21 in 7.0 mi North 20.7 mph 24.2 mph N/A   Clear
5:55 PM 72.5 °F 26.6 °F 18% 30.22 in 5.0 mi North 16.1 mph 21.9 mph N/A   Haze
6:15 PM 71.6 °F 25.2 °F 18% 30.23 in 7.0 mi North 15.0 mph 20.7 mph N/A   Clear
6:35 PM 70.0 °F 20.7 °F 15% 30.24 in 7.0 mi North 16.1 mph 21.9 mph N/A   Clear
6:55 PM 68.9 °F 21.0 °F 16% 30.25 in 7.0 mi NNE 10.4 mph - N/A   Clear
7:15 PM 67.6 °F 23.0 °F 18% 30.25 in 7.0 mi North 9.2 mph - N/A   Clear
7:35 PM 66.2 °F 23.2 °F 20% 30.26 in 7.0 mi North 8.1 mph - N/A   Clear
7:55 PM 64.2 °F 24.1 °F 22% 30.27 in 5.0 mi North 5.8 mph - N/A   Haze
8:15 PM 62.2 °F 24.6 °F 24% 30.28 in 5.0 mi North 5.8 mph - N/A   Haze
8:35 PM 61.0 °F 24.8 °F 25% 30.28 in 7.0 mi North 5.8 mph - N/A   Clear
8:55 PM 60.3 °F 25.5 °F 27% 30.28 in 7.0 mi North 5.8 mph - N/A   Clear
9:15 PM 59.5 °F 26.1 °F 28% 30.29 in 7.0 mi NNW 5.8 mph - N/A   Clear
9:35 PM 59.0 °F 26.2 °F 29% 30.30 in 7.0 mi NW 4.6 mph - N/A   Clear
9:55 PM 59.0 °F 26.2 °F 29% 30.30 in 7.0 mi NW 3.5 mph - N/A   Clear
10:15 PM 58.1 °F 26.4 °F 30% 30.31 in 7.0 mi WNW 3.5 mph - N/A   Clear
10:35 PM 56.5 °F 26.6 °F 32% 30.32 in 7.0 mi WNW 3.5 mph - N/A   Clear
10:55 PM 54.5 °F 26.8 °F 34% 30.32 in 10.0 mi Calm Calm - N/A   Clear
11:15 PM 55.0 °F 26.4 °F 33% 30.32 in 7.0 mi Calm Calm - N/A   Clear
11:35 PM 53.8 °F 26.4 °F 35% 30.32 in 7.0 mi Calm Calm - N/A   Clear
11:55 PM 53.4 °F 26.2 °F 35% 30.32 in 7.0 mi North 6.9 mph - N/A   Clear